DMSP 5D-2 F13 DEB

Satellite information

Favourite Embed

Satellite Type and Status

DEBRISIN ORBIT

Key statistics

Satellite DMSP 5D-2 F13 DEB at a glance.

Uptime

11003

Days in orbit

Revolutions

≈ 14.4

Per day

Orbit

SSO

Sun Synchronous Orbit

Inclination

98.7

Latest

Satellite identification and parameters

Extended collection of information and parameters for DMSP 5D-2 F13 DEB.

Object identification

Identified? True

Debris? True

Object name: DMSP 5D-2 F13 DEB

International designator: 1995-015FG

Object number (NORAD): 40609

Object ID (CCSDS): 40609

Country: UNITED STATES OF AMERICA (US)

Current information (Y/N): Y

RCS size: SMALL

Orbital parameters

Period: 100.081 minutes

Inclination: 98.6923 deg

SMA: 7140.505 km

Apoapsis: 766.653 km

Periapsis: 758.088 km

RAAN: 154.3558 deg

Eccentricy: 0.0005997

Argument of periapsis: 138.6776 deg

Mean anomaly: 221.4865 deg

Mean motion: 14.38829513 rev/day

Mean motion (dot): 0.0001121 rev/day2

B* drag term: 0.003653 1/REarth

Two-line elements (TLE)

Creation date: May 2, 2025, 3:16 p.m.

Reference frame: TEME

Reference center: EARTH

Epoch: May 2, 2025, 8:13 a.m. UTC

TLE line 0: 0 DMSP 5D-2 F13 DEB

TLE line 1: 1 40609U 95015FG 25122.34246529 .00011210 00000-0 36530-2 0 9990

TLE line 2: 2 40609 98.6923 154.3558 0005997 138.6776 221.4865 14.38829513525540

Live tracking on map

Real-time ground track for satellite DMSP 5D-2 F13 DEB.

In-orbit conjunctions

A list of the most updated potential collisions computed for object DMSP 5D-2 F13 DEB.

Target Orbit TCA Probability of collision Miss distance Type
METEOR 2-5 DEB LEO 2025-02-16 00:46:00 0.0001023848 111.0 (m) DEBRIS
THOR BURNER 2 R/B SSO 2024-12-12 12:25:52 0.0001936149 240.0 (m) ROCKET BODY

Associated space launch

Military meteorological satellite

DMSP 5D-2 F13 DEB was lifted into orbit during the mission ‘Atlas E | DMSP-5D2 F13’, on board a Atlas E space rocket.

The launch took place on March 24, 1995, 2:05 p.m. from Space Launch Complex 3W.

For more information about the launch, click the button.

Launch to space Atlas E | DMSP-5D2 F13
Atlas E | DMSP-5D2 F13

Agency: N/A

Status: Launch Successful

Launch date: March 24, 1995, 2:05 p.m. UTC

Rocket: Atlas E

Launch pad: Space Launch Complex 3W

Location: Vandenberg SFB, CA, USA

...

Latest news about this satellite

There are no fresh news available about this satellite. Check back as we update our databases every day.


Newsletter sign-up

Weekly statistics, charts and insights to help you stay on top of the space industry.